Вернуться в каталог

UWE-2

АктивенНаукаSSO
NORAD 35934·PAYLOAD·🇩🇪 Germany

Запущен Sep 23, 2009 с Satish Dhawan Space Centre

Loading…

Ближайшие Пролёты (ближайшие 24 часа)

TLE

СвежийSource: Space-Track

Эпоха: Sep 14, 2026, 11:13 UTC

1 35934U 09051D   26257.46797781  .00000470  00000-0  10745-3 0  9991
2 35934  98.3921 162.1309 0005589 339.7149  20.3828 14.60269126901889

Отслеживайте UWE-2 в реальном времени с AllMySat

Download on the App Store